LAOSAT 1 (41034 NORAD) Tracking and Keplerian Element Data

This shows tracking and keplerian element data for the satellite.

Feedback or suggestion? Click here.




ElementValue
Catalog41034
NameLAOSAT 1
Epoch Orbit3143
Epoch Day160.23511498
Epoch Year2024
RAAN135.3493
Inclination0.0562
Eccentricity0.0002712
Argument of Perigee260.5684
Mean Anonmoly74.3204
Mean Motion1.0027429
Decay Rate-3.43E-06
L11 41034U 15067A 24160.23511498 -.00000343 00000+0 00000+0 0 9996
L22 41034 0.0562 135.3493 0002712 260.5684 74.3204 1.00274290 31434



Live tracking and technical data element details for LAOSAT 1 (NORAD 41034). LAOSAT 1 can be tracked NOW for your location showing map with azimuth and elevation plus other details from your city location.







IsCatalogInMostPopularTable: catalog: 41034, numindb: 647
Update: records affected: 1



GetName: 41034 LAOSAT 1

Hit Count: updated at: Mon, 17 Jun 2024 22:33:24 GMT